Location: Most
(50.5330°N, 13.6500°E)
Time: 06:37:50
(UTC+01:00)

N. Korean satellite - Pass Details

Date: 28 October 2021
Orbit: 446 x 495 km, 97.3° (Epoch: 04 December)

Event Time Altitude Azimuth Distance (km) Brightness Sun altitude
Rises 07:12:25 0° 5° (N) 2,597 10.2 -6.5°
Reaches altitude 10° 07:14:39 10° 355° (N) 1,705 9.2 -6.2°
Maximum altitude 07:17:56 32° 292° (WNW) 873 7.3 -5.7°
Drops below altitude 10° 07:21:10 10° 228° (SW) 1,676 9.0 -5.2°
Sets 07:23:21 0° 218° (SW) 2,544 10.0 -4.8°
